This is the latest recevied weather packets stored in our database for station/object K4XP. If no packets are shown the sender has not sent any weather packets the latest 10 day(s).
| Time | Temp. | Humidity | Pressure | Rain* | Wind** | Luminosity | Snow |
|---|---|---|---|---|---|---|---|
| 1788040831 | 30.56° C | 65% | 1019.8 hPa | 0 mm | - | - | - |
| 1788040548 | 30.56° C | 64% | 1019.9 hPa | 0 mm | - | - | - |
| 1788040238 | 31.11° C | 65% | 1019.9 hPa | 0 mm | - | - | - |
| 1788039935 | 31.67° C | 63% | 1019.9 hPa | 0 mm | - | - | - |
| 1788039625 | 31.67° C | 62% | 1019.9 hPa | 0 mm | - | - | - |
| 1788039334 | 32.22° C | 61% | 1019.9 hPa | 0 mm | - | - | - |
| 1788039037 | 32.22° C | 61% | 1019.9 hPa | 0 mm | - | - | - |
| 1788038734 | 31.67° C | 58% | 1019.8 hPa | 0 mm | - | - | - |
| 1788038435 | 31.67° C | 60% | 1019.9 hPa | 0 mm | - | - | - |
| 1788038126 | 31.11° C | 61% | 1019.9 hPa | 0 mm | - | - | - |
| 1788037826 | 31.11° C | 57% | 1019.9 hPa | 0 mm | - | - | - |
| 1788037547 | 31.11° C | 56% | 1019.9 hPa | 0 mm | - | - | - |
| 1788037238 | 31.11° C | 62% | 1020 hPa | 0 mm | - | - | - |
| 1788036916 | 31.11° C | 63% | 1020 hPa | 0 mm | - | - | - |
| 1788036619 | 31.11° C | 61% | 1019.9 hPa | 0 mm | - | - | - |
| 1788036336 | 31.11° C | 62% | 1019.9 hPa | 0 mm | - | - | - |
| 1788036031 | 31.11° C | 64% | 1020 hPa | 0 mm | - | - | - |
| 1788035728 | 30.56° C | 66% | 1020 hPa | 0 mm | - | - | - |
| 1788035424 | 30.56° C | 66% | 1020.1 hPa | 0 mm | - | - | - |
| 1788035125 | 30° C | 67% | 1020.1 hPa | 0 mm | - | - | - |
| 1788034836 | 30° C | 70% | 1020.3 hPa | 0 mm | - | - | - |
| 1788034528 | 30° C | 67% | 1020.4 hPa | 0 mm | - | - | - |
| 1788034229 | 30° C | 67% | 1020.5 hPa | 0 mm | - | - | - |
| 1788033922 | 30.56° C | 67% | 1020.5 hPa | 0 mm | - | - | - |
| 1788033643 | 30.56° C | 67% | 1020.5 hPa | 0 mm | - | - | - |
* Rain latest hour (hover to see other rain measurements)
** Current wind speed in m/s (hover to see current wind gust speed)